P/2006 W4 (Hill)

T 2009 Jan. 20.62038 TT                                 Nakano

q   4.4332930            (2000.0)            P               Q

n   0.05962425     Peri.  249.68500     -0.51823747     -0.67157364

a   6.4891446      Node   243.26413     +0.81736072     -0.57114825

e   0.3168140      Incl.   36.36568     -0.25169699     -0.47199420

P  16.53 (+/- 1.52 days)

From 79 observations 2006 Nov. 19-2007 Jan. 17.

Residuals in seconds of arc 

2006/                     061123 734  1.1+  0.1-    061215 704  1.3-  0.5+  

061119 704  1.0+  0.3-    061123 854  0.5-  1.9+    061215 704  0.4+  0.6+  

061119 704  0.4+  0.1+    061123 854  0.4-  0.4+    061215 704  1.9+  0.4-  

061119 704  0.4-  0.5+    061123 854  0.3+  0.2-    061215 G96  0.1+  0.5-  

061122 704  1.5-  0.5+    061123 143  0.4+  0.2+    061215 G96  0.7-  0.3-  

061122 703  0.5-  0.3+    061123 143  0.1+  0.1+    061215 G96  0.2-  0.6-  

061122 704  1.6-  0.3-    061123 143  0.3-  0.1+    061215 G96  0.1-  0.9-  

061122 703  0.8+  0.5+    061123 235  0.3+  0.1+    061215 246  0.3-  0.4-  

061122 704  0.7-  0.3+    061123 235  0.1-  0.5-    061215 246  0.3+  0.2+  

061122 703  0.1+  0.1+    061123 J95  0.5+  0.3-    061215 246  0.0   0.1-  

061122 704  1.6-  1.4+    061123 J95  0.4+  0.2-    061215 246  0.2+  0.0   

061122 703 (2.4-  1.1+)   061123 J95  0.3+  0.4-    061215 246  0.3-  0.4-  

061122 704 (0.6+  2.5+)   061124 349  0.3+  1.0-    061221 204  0.7-  0.0   

061122 703  1.3+  0.1-    061124 349  0.4+  1.3-    061222 204  0.1-  0.6+  

061122 703 (2.2-  0.9+)   061124 349  0.7+  1.5-    061222 147  1.0-  0.1+  

061122 703  0.8-  0.6+    061126 215 (3.2+  1.3+)   061222 147  0.2-  0.5+  

061122 703  0.3-  0.5-    061127 204  0.7-  0.1-    061226 130 (2.3+  1.3-) 

061122 143  1.2+  0.2+    061127 204  0.3+  0.5-    061226 118  0.4-  0.2-  

061122 143  0.5-  0.4-    061127 213  0.1+  0.7+    061226 118  0.2-  0.0   

061122 470 (2.4+  1.2-)   061127 213  0.3+  0.6+    061227 703  0.0   0.2+  

061122 470  0.6-  0.7+    061127 213  0.2+  0.6+    061227 703  0.3-  0.9-  

061122 470 (2.8-  1.1-)   061127 213  0.5+  0.6+    061227 703  1.4+  0.4+  

061122 470  0.5-  1.1+    061201 673  0.2-  0.4+    061227 703  1.1-  1.0+  

061123 703  0.3-  0.1-    061201 673  0.3-  0.5-    2007/                   

061123 703  0.3+  0.5-    061201 673  0.6+  0.7-    070117 G96  0.4+  0.1-  

061123 703  0.8-  0.2-    061201 673  0.2-  0.5-    070117 G96  0.2-  0.0   

061123 734  0.2+  0.7-    061214 703  1.1+  0.7+    070117 G96  0.1+  0.2-  

061123 703  0.2-  0.5-    061214 703  1.5+  0.3-    070117 G96  0.0   0.1+  

061123 734  0.5+  0.3-    061214 703  0.5+  0.2-                            

061123 734  0.4+  0.4-    061214 703  0.7-  0.5+                            



NAKANO

         **** Don't distribute anyone except personal use only ****

                (C) Copyright 2007 OAA/ComputingSection

write mail from CFAD0::NAKANO on 2007-02-11 07:48:38(JST).

 





    P/2006 W4 (Hill)

T 2009 Jan. 23.28919 TT                                 Nakano

q   4.4401753            (2000.0)            P               Q

n   0.05975932     Peri.  249.77375     -0.51848325     -0.67083126

a   6.4793625      Node   243.24284     +0.81673036     -0.57215606

e   0.3147203      Incl.   36.42939     -0.25323238     -0.47182928

P  16.49 (+/- 4.22 days)

From 70 observations 2006 Nov. 19-Dec. 26.



NAKANO

         **** Don't distribute anyone except personal use only ****

                (C) Copyright 2007 OAA/ComputingSection

write mail from CFAD0::NAKANO on 2007-01-11 23:59:04(JST).

 





    P/2006 W4 (Hill)

T 2009 Mar. 5.20700 TT                                  Nakano

q   4.5478900            (2000.0)            P               Q

n   0.06207954     Peri.  251.00604     -0.52424584     -0.66029936

a   6.3168961      Node   243.01723     +0.80694396     -0.58692955

e   0.2800436      Incl.   37.11626     -0.27204366     -0.46852797

P  15.88 (+/-41.35 days)

From 44 observations 2006 Nov. 19-27.



NAKANO

         **** Don't distribute anyone except personal use only ****

                (C) Copyright 2006 OAA/ComputingSection

write mail from CFAD0::NAKANO on 2006-12-06 04:14:31(JST).

 



◎P/2006 W4の軌道と予報位置です



 上尾の門田健一氏から11月24日の観測が報告されました.氏の CCD全光度は

19.4等でした.なお,周期は,大きく不確かです.



    P/2006 W4 (Hill)

T 2008 Mar. 18.52838 TT                                 Nakano

q   4.3084238            (2000.0)            P               Q

n   0.05429178     Peri.  222.12278     -0.26714829     -0.86927388

a   6.9073798      Node   247.36282     +0.95975077     -0.20119198

e   0.3762579      Incl.   26.78499     +0.08666169     -0.45153594

P  18.15 (+/-113.42 days)

From 35 observations 2006 Nov. 19-24.

 

Date/        TT  R.A.(2000) Decl.     Delta   r     Daily motion  Mag.  Moon Age

              h    h  m       。  ,                      ,  / PA 。  m1      。

2006 Nov. 25 14  03 10.26  +26 04.9   3.945  4.911     9.0 / 231  19.2  114  .22

          26 14  03 09.75  +25 59.1   3.946  4.909     9.0 / 230  19.2  100  .32

          27 14  03 09.24  +25 53.4   3.948  4.906     8.9 / 230  19.2   86  .42

          28 14  03 08.73  +25 47.6   3.949  4.904     8.9 / 229  19.2   72  .54

          29 14  03 08.24  +25 41.9   3.951  4.902     8.8 / 229  19.2   58  .65

          30 14  03 07.75  +25 36.1   3.953  4.900     8.7 / 228  19.2   43  .75

     Dec.  1 14  03 07.26  +25 30.3   3.956  4.898     8.7 / 228  19.2   29  .85

           2 14  03 06.79  +25 24.5   3.959  4.895     8.6 / 227  19.2   14  .92

           3 14  03 06.32  +25 18.7   3.962  4.893     8.5 / 227  19.2    3  .97

           4 14  03 05.86  +25 12.9   3.965  4.891     8.4 / 226  19.2   15 1.00

           5 14  03 05.41  +25 07.0   3.969  4.889     8.3 / 226  19.2   30  .99

           6 14  03 04.97  +25 01.2   3.973  4.887     8.2 / 225  19.2   43  .97

           7 14  03 04.54  +24 55.4   3.977  4.884     8.1 / 225  19.2   57  .92

           8 14  03 04.12  +24 49.6   3.981  4.882     8.0 / 224  19.2   70  .85

           9 14  03 03.71  +24 43.9   3.986  4.880     7.9 / 223  19.2   83  .78

          10 14  03 03.31  +24 38.1   3.991  4.878     7.8 / 223  19.2   95  .69

          11 14  03 02.92  +24 32.3   3.997  4.876     7.7 / 222  19.2  108  .60

          12 14  03 02.54  +24 26.6   4.002  4.873     7.6 / 221  19.2  120  .50

          13 14  03 02.18  +24 20.9   4.008  4.871     7.5 / 221  19.2  132  .41

          14 14  03 01.82  +24 15.2   4.015  4.869     7.4 / 220  19.2  144  .32

          15 14  03 01.48  +24 09.6   4.021  4.867     7.2 / 219  19.2  156  .23

          16 14  03 01.14  +24 04.0   4.028  4.865     7.1 / 218  19.2  168  .16

          17 14  03 00.82  +23 58.4   4.035  4.863     7.0 / 217  19.2  178  .09

          18 14  03 00.52  +23 52.8   4.042  4.860     6.8 / 216  19.2  167  .04

          19 14  03 00.22  +23 47.3   4.049  4.858     6.7 / 215  19.2  154  .01

          20 14  02 59.94  +23 41.9   4.057  4.856     6.6 / 214  19.2  141  .00

          21 14  02 59.67  +23 36.4   4.065  4.854     6.4 / 213  19.2  128  .01

          22 14  02 59.42  +23 31.1   4.073  4.852     6.3 / 212  19.2  114  .05

          23 14  02 59.18  +23 25.7   4.082  4.850     6.1 / 211  19.2  100  .11

          24 14  02 58.95  +23 20.5   4.090  4.848     6.0 / 209  19.2   86  .18

          25 14  02 58.74  +23 15.2   4.099  4.845     5.9 / 208  19.2   72  .28

          26 14  02 58.54  +23 10.1   4.108  4.843     5.7 / 206  19.2   58  .38

          27 14  02 58.36  +23 04.9   4.117  4.841     5.6 / 205  19.2   44  .50

          28 14  02 58.19  +22 59.9   4.127  4.839     5.4 / 203  19.2   30  .61

          29 14  02 58.03  +22 54.9   4.137  4.837     5.3 / 202  19.2   15  .72

          30 14  02 57.89  +22 50.0   4.146  4.835     5.2 / 200  19.2    2  .81

          31 14  02 57.76  +22 45.1   4.157  4.833     5.1 / 198  19.2   13  .89

2007 Jan.  1 14  02 57.65  +22 40.3   4.167  4.831     4.9 / 196  19.2   27  .95

NAKANO

         **** Don't distribute anyone except personal use only ****

                (C) Copyright 2006 OAA/ComputingSection

write mail from CFAD0::NAKANO on 2006-11-25 05:28:20(JST).

 



戻ります。